This is the latest recevied weather packets stored in our database for station/object K1ZK-13. If no packets are shown the sender has not sent any weather packets the latest 10 day(s).
| Time | Temp. | Humidity | Pressure | Rain* | Wind** | Luminosity | Snow |
|---|---|---|---|---|---|---|---|
| 1777419373 | 18.33° C | 46% | 1014.9 hPa | 0 mm | - | 5 W/m² | - |
| 1777419073 | 18.33° C | 44% | 1015.2 hPa | 0 mm | - | 6 W/m² | - |
| 1777418771 | 18.33° C | 46% | 1015 hPa | 0 mm | - | 7 W/m² | - |
| 1777418469 | 18.89° C | 45% | 1015.3 hPa | 0 mm | - | 9 W/m² | - |
| 1777418164 | 18.89° C | 46% | 1015.2 hPa | 0 mm | - | 11 W/m² | - |
| 1777417861 | 18.89° C | 46% | 1014.9 hPa | 0 mm | - | 16 W/m² | - |
| 1777417556 | 18.89° C | 45% | 1014.9 hPa | 0 mm | - | 21 W/m² | - |
| 1777417253 | 18.89° C | 45% | 1014.9 hPa | 0 mm | - | 25 W/m² | - |
| 1777416949 | 19.44° C | 45% | 1015.1 hPa | 0 mm | - | 28 W/m² | - |
| 1777416649 | 19.44° C | 44% | 1015.2 hPa | 0 mm | - | 31 W/m² | - |
| 1777416345 | 19.44° C | 44% | 1015.1 hPa | 0 mm | - | 36 W/m² | - |
| 1777416045 | 20° C | 43% | 1015.3 hPa | 0 mm | - | 42 W/m² | - |
| 1777415741 | 20° C | 41% | 1015.3 hPa | 0 mm | - | 52 W/m² | - |
| 1777414827 | 20.56° C | 39% | 1015.3 hPa | 0 mm | - | 63 W/m² | - |
| 1777414522 | 20.56° C | 39% | 1015.4 hPa | 0 mm | - | 63 W/m² | - |
| 1777413309 | 21.11° C | 37% | 1015.4 hPa | 0 mm | - | 114 W/m² | - |
| 1777413005 | 21.11° C | 37% | 1015.5 hPa | 0 mm | - | 114 W/m² | - |
| 1777412704 | 21.11° C | 38% | 1015.6 hPa | 0 mm | - | 140 W/m² | - |
| 1777412402 | 21.11° C | 38% | 1015.7 hPa | 0 mm | - | 140 W/m² | - |
| 1777411485 | 21.67° C | 33% | 1015.8 hPa | 0 mm | - | 159 W/m² | - |
| 1777411184 | 21.67° C | 33% | 1015.9 hPa | 0 mm | - | 159 W/m² | - |
| 1777409968 | 21.67° C | 40% | 1015.9 hPa | 0 mm | - | 211 W/m² | - |
| 1777409663 | 21.67° C | 40% | 1015.9 hPa | 0 mm | - | 211 W/m² | - |
| 1777406020 | 22.78° C | 38% | 1016.6 hPa | 0 mm | - | 285 W/m² | - |
| 1777405718 | 22.78° C | 38% | 1016.7 hPa | 0 mm | - | 285 W/m² | - |
* Rain latest hour (hover to see other rain measurements)
** Current wind speed in m/s (hover to see current wind gust speed)